ROMMA est une association bénévole à but non lucratif. Votre soutien est indispensable : ADHERER à ROMMA ou FAIRE un DON

Taninges - (74, Haute-Savoie)

Vallée du Giffre (635 m)   Longitude: 06° 35' 38" E   Latitude: 46° 06' 21" N Station romma n°98
 

Détail journalier du     <<     >>

Température Humidité Pression Vent Dir Rafale Dir. rafale Ensol.
Heure (°C) (%) (hPa) (km/h) (km/h) (min)
01:00 -8.19010141NNE5OSO0
02:00 -8.992101403NNO0
03:00 -9.492101505SE0
04:00 -9.69310151SE5S0
05:00 -10.292101505ENE0
06:00 -11.591101603NE0
07:00 -12.192101703E0
08:00 -11.893101703NE0
09:00 -9.893101803NO0
10:00 -7.99310181E3NO0
11:00 -3.294101802E30
12:00 -0.271101702E55
13:00 -0.76410171NE5ESE60
14:00 -0.86610171ESE5SSE60
15:00 -0.96810173S16SO60
16:00 -1.27210185OSO15SO60
17:00 -2.67610182SSE8OSO35
18:00 -3.78310201N6OSO0
19:00 -5.78410211E10SE0
20:00 -7.389102202E0
21:00 -7.89110221ENE5ENE0
22:00 -8.391102305SE0
23:00 -7.692102203SE0
minuit -6.99210211SSE3SE0

Graphique du 25-01-2019

 

Serveur OMMA